Skip Page Navigation
NASA JPL Caltech
NASA Logo - Jet Propulsion Laboratory + View the NASA Portal
+ Near-Earth Object (NEO) Program
Search JPL
JPL Home Earth Solar System Stars & Galaxies Technology
JPL Solar System Dynamics
BODIES ORBITS EPHEMERIDES TOOLS PHYSICAL DATA DISCOVERY FAQ SITE MAP
JPL Small-Body Database Browser
Search: [ help ]  
(2012 SD22)
Classification: Apollo [NEO, PHA]          SPK-ID: 3608936
Ephemeris | Orbit Diagram | Orbital Elements | Physical Parameters | Close-Approach Data ]

[ hide orbit diagram ]
Orbit Diagram
Note: Make sure you have Java enabled on your browser to see the applet. This applet is provided as a 3D orbit visualization tool. The applet was implemented using 2-body methods, and hence should not be used for determining accurate long-term trajectories (over several years or decades) or planetary encounter circumstances. For accurate long-term ephemerides, please instead use our Horizons system.
Orbit Viewer

Additional Notes: the orbits shown in the applet are color coded. The planets are white lines, and the asteroid/comet is a blue line. The bright white line indicates the portion of the orbit that is above the ecliptic plane, and the darker portion is below the ecliptic plane. Likewise for the asteroid/comet orbit, the light blue indicates the portion above the ecliptic plane, and the dark blue the portion below the ecliptic plane.

Orbit Viewer applet originally written and kindly provided by Osamu Ajiki (AstroArts), and further modified by Ron Baalke (JPL).


Orbital Elements at Epoch 2456400.5 (2013-Apr-18.0) TDB
Reference: JPL 23 (heliocentric ecliptic J2000)
 Element Value Uncertainty (1-sigma)   Units 
e .5724854331933237 6.5528e-08  
a 1.964323111237002 9.1833e-09 AU
q .8397767439688295 1.2776e-07 AU
i 7.882850089379944 2.402e-05 deg
node 140.5069685465586 0.00014764 deg
peri 313.3997467647319 0.00014438 deg
M 42.38437233968596 1.3586e-05 deg
tp 2456282.108350394880
(2012-Dec-20.60835039)
3.7924e-05 JED
period 1005.58275385703
2.75
7.0517e-06
1.931e-08
d
yr
n .3580013664904037 2.5105e-09 deg/d
Q 3.088869478505174 1.4441e-08 AU
  Orbit Determination Parameters
   # obs. used (total)      144  
   data-arc span      4255 days (11.65 yr)  
   first obs. used      2001-08-26  
   last obs. used      2013-04-20  
   planetary ephem.      DE405  
   SB-pert. ephem.      SB405-CPV-2  
   condition code      0  
   fit RMS      .41128  
   data source      ORB  
   producer      Otto Matic  
   solution date      2013-Apr-29 12:16:16  

Additional Information
 Earth MOID = .0162522 AU 
 T_jup = 3.647 
[ show covariance matrix ]

Ephemeris | Orbit Diagram | Orbital Elements | Physical Parameters | Close-Approach Data ]

Physical Parameter Table
Parameter Symbol Value Units Sigma Reference Notes
absolute magnitude H 20.037 mag .3498 23 autocmod 2.5c

[ show close-approach data ]
Ephemeris | Orbit Diagram | Orbital Elements | Physical Parameters | Close-Approach Data ]
ABOUT SSD CREDITS/AWARDS PRIVACY/COPYRIGHT GLOSSARY LINKS
FirstGov 2013-May-24 01:37 UT
(server date/time)  
NASA Home Page
Site Manager:   Donald K. Yeomans
Webmaster  Alan B. Chamberlin